Location: Halfweg
(53.1000°N, 6.6000°E)
Time: 19:55:22
(UTC+00:00)

Alouette 2 Rocket - Pass Details

Date: 15 May 2026
Orbit: 501 x 2614 km, 79.8° (Epoch: 7 June)

Event Time Altitude Azimuth Distance (km) Brightness Sun altitude
Rises 23:20:31 0° 346° (NNW) 2,626 8.4 -17.8°
Reaches altitude 10° 23:22:27 10° 349° (NNW) 1,784 7.2 -17.8°
Maximum altitude 23:26:10 70° 73° (ENE) 650 3.6 -17.8°
Enters shadow 23:28:15 31° 150° (SSE) 1,175 4.5 -17.8°
